Location: Cardiff
(53.7833°N, 113.6000°W)
Time: 05:21:28
(UTC+00:00)

SO-50 - Pass Details

Date: 05 December 2023
Orbit: 608 x 660 km, 64.6° (Epoch: 02 March)

Event Time Altitude Azimuth Distance (km) Brightness Sun altitude
Exits shadow 14:40:11 - 299° (WNW) 2,104 ? -7.5°
Reaches altitude 10° 14:40:21 10° 301° (WNW) 2,054 ? -7.5°
Maximum altitude 14:44:00 22° 352° (N) 1,401 ? -7.0°
Drops below altitude 10° 14:47:37 10° 44° (NE) 2,027 ? -6.6°
Sets 14:50:20 0° 60° (ENE) 2,925 ? -6.2°
